Regional Weather Roundup
Issued by NWS Cleveland, OH

Home | Current Version | Previous Version | Text Only | Print | Product List | Glossary Off
Versions: 1 2 3 4 5 6 7 8 9 10 11 12 13 14 15 16 17 18 19 20 21 22 23 24 25 26 27 28 29 30 31 32 33 34 35 36 37 38 39 40 41 42 43 44 45 46 47 48 49 50

000
ASUS41 KCLE 050410
RWRCLE
OHIO REGIONAL WEATHER ROUNDUP
NATIONAL WEATHER SERVICE CLEVELAND, OH
1100 PM EST WED MAR 04 2015

NOTE: "FAIR" INDICATES FEW OR NO CLOUDS BELOW 12,000 FEET WITH NO
SIGNIFICANT WEATHER AND/OR OBSTRUCTIONS TO VISIBILITY.

OHZ001>008-015>018-024>027-034-035-043-044-050500-
   NORTHWEST OHIO

CITY           SKY/WX    TMP DP  RH WIND       PRES   REMARKS
DEFIANCE       CLOUDY    19   4  51 NW13      30.27R WCI   6
FINDLAY        CLOUDY    20   3  48 NW21G30   30.23R WCI   4
TOLEDO EXPRESS CLOUDY    18   1  47 NW18G26   30.24R WCI   2
TOLEDO EXEC    CLOUDY    19   4  51 NW17      30.25R WCI   4
LIMA           CLOUDY    20   8  60 NW12      30.22R WCI   8
$$

OHZ009>014-019>023-028>033-038-089-050500-
   NORTHEAST OHIO

CITY           SKY/WX    TMP DP  RH WIND       PRES   REMARKS
CLE-HOPKINS    CLOUDY    23  10  57 NW20G25   30.19R WCI   8
CLE-LAKEFRONT  CLOUDY    24  13  62 W22G29    30.17R WCI   9
CUY CO. ARPT   CLOUDY    27  16  63 NW16G23   30.16R WCI  14
LORAIN-ELYRIA  FLURRIES  21   8  57 NW22G29   30.19R WCI   5
ASHTABULA      CLOUDY    26  14  60 NW14G22   30.11R WCI  14
AKRON-CANTON   CLOUDY    27  15  61 NW16      30.10R WCI  15
WOOSTER        CLOUDY    25  15  66 NW17G24   30.14R WCI  12
MANSFIELD      CLOUDY    22  12  65 NW13G22   30.14R WCI  10
YOUNGSTOWN     CLOUDY    28  17  63 NW12      30.07R WCI  18
$$

OHZ042-051>053-060>062-070>072-077>081-050500-
  SOUTHWEST OHIO

CITY           SKY/WX    TMP DP  RH WIND       PRES   REMARKS
CINC-COVINGTON LGT SNOW  24  21  88 N12       30.19R VSB 3/4 WCI  13
CINC-LUNKEN    LGT SNOW  25  22  88 N14       30.23R VSB 1   WCI  13
HAMILTON       CLOUDY    25  14  63 N10       30.24R WCI  15
DAYTON         CLOUDY    23  13  65 N16       30.22R WCI  10
WRIGHT-PAT AFB CLOUDY    24  15  69 NW14      30.21R WCI  11
DAYTON GENERAL CLOUDY    24  14  65 NW12      30.20R WCI  13
WILMINGTON     LGT SNOW  23  16  74 N15       30.18R WCI  10
$$

OHZ036-037-039>041-045>050-054>059-063>069-073>076-082>088-050500-
  CENTRAL AND SOUTHEAST OHIO

CITY           SKY/WX    TMP DP  RH WIND       PRES   REMARKS
COLUMBUS       CLOUDY    26  17  68 NW15      30.16R WCI  14
OSU AIRPORT    CLOUDY    24  13  62 NW12      30.17R WCI  13
BOLTON FIELD   CLOUDY   N/A N/A N/A NW14      30.17R
RICKENBACK AFB CLOUDY    27  19  74 NW14      30.16R WCI  15
NEWARK         CLOUDY    27  17  66 NW17G24   30.15R WCI  14
MARION         CLOUDY    21  10  62 NW13      30.19R WCI   9
LANCASTER      LGT SNOW  26  23  88 NW8       30.15R FOG     WCI  18
ZANESVILLE     LGT SNOW  26  22  84 NW10      30.13R FOG     WCI  16
NEW PHILLY     CLOUDY    31  19  61 NW13G18   30.12R WCI  21
$$



USA.gov is the U.S. government's official web portal to all federal, state and local government web resources and services.